Location: Hanover
(52.3667°N, 9.7167°E)
Time: 03:11:39
(UTC+02:00)

ARIANE 6 FM1 Upper Stage - Pass Details

Date: 22 September 2024
Orbit: 564 x 594 km, 62.0° (Epoch: 06 October)

Event Time Altitude Azimuth Distance (km) Brightness Sun altitude
Rises 23:42:53 0° 277° (W) 2,806 6.6 -34.4°
Reaches altitude 10° 23:45:26 10° 290° (WNW) 1,913 5.8 -34.6°
Enters shadow 23:46:12 14° 297° (WNW) 1,677 5.6 -34.7°
